Aurora, CO

2:03 AM MDT on October 21, 2017 (GMT -0600)
Buckley Air Force Base

Weather History for KBKF - January, 2013

Change the Weather History Date:

Tuesday, January 8, 2013

  Actual Average Record
Temperature  
Mean Temperature 39 °F -  
Max Temperature 50 °F 42 °F 68 °F (2003)
Min Temperature 28 °F 20 °F 10 °F (2005)
Degree Days  
Heating Degree Days 26    
Moisture  
Dew Point 13 °F    
Average Humidity 36    
Maximum Humidity 55    
Minimum Humidity 24    
Precipitation  
Precipitation 0.00 in - - ()
Sea Level Pressure  
Sea Level Pressure 29.94 in    
Wind  
Wind Speed 8 mph (SW)    
Max Wind Speed 13 mph    
Max Gust Speed -    
Averages and records for this station are not official NWS values.
T = Trace of Precipitation, MM = Missing Value Source: NWS Daily Summary

Daily Weather History Graph

Daily Weather History Graph

Search for Another Location

Airport or City:

Trip Planner

Search our weather history database for the weather conditions in past years. The results will help you decide how hot, cold, wet, or windy it might be!

Date:

Astronomy

Jan. 08, 2013 Rise Set
Actual Time 7:19 AM MST 4:52 PM MST
Civil Twilight 6:49 AM MST 5:22 PM MST
Nautical Twilight 6:16 AM MST 5:55 PM MST
Astronomical Twilight 5:43 AM MST 6:28 PM MST
Moon 3:55 AM MST (1/8) 1:56 PM MST (1/8)
Length of Visible Light 10h 32m
Length of Day
9h 32m
Waning Crescent, 13% of the Moon is Illuminated
Jan 8
Waning Crescent
Jan 11
New
Jan 18
First Quarter
Jan 26
Full
Feb 3
Last Quarter

Hourly Weather History & Observations

Time (MST) Temp. Windchill Dew Point Humidity Pressure Visibility Wind Dir Wind Speed Gust Speed Precip Events Conditions
12:55 AM 28.4 °F 20.4 °F 6.8 °F 40% 29.75 in 25.0 mi South 8.1 mph - N/A   Partly Cloudy
1:55 AM 32.0 °F 24.8 °F 6.8 °F 35% 29.75 in 25.0 mi South 8.1 mph - N/A   Scattered Clouds
2:55 AM 35.6 °F 29.2 °F 3.2 °F 26% 29.74 in 25.0 mi SSW 8.1 mph - N/A   Mostly Cloudy
3:55 AM 37.4 °F 32.1 °F 3.2 °F 24% 29.75 in 25.0 mi South 6.9 mph - N/A   Mostly Cloudy
4:55 AM 35.6 °F 28.6 °F 5.0 °F 28% 29.78 in 25.0 mi SW 9.2 mph - N/A   Mostly Cloudy
5:55 AM 41.0 °F 35.8 °F 10.4 °F 29% 29.79 in 25.0 mi WNW 8.1 mph - N/A   Mostly Cloudy
6:55 AM 35.6 °F 29.9 °F 12.2 °F 38% 29.82 in 25.0 mi West 6.9 mph - N/A   Mostly Cloudy
7:55 AM 37.4 °F 34.9 °F 10.4 °F 33% 29.86 in 70.0 mi NE 3.5 mph - N/A   Mostly Cloudy
8:55 AM 39.2 °F 37.0 °F 15.8 °F 39% 29.90 in 70.0 mi SSW 3.5 mph - N/A   Mostly Cloudy
9:55 AM 46.4 °F 43.5 °F 12.2 °F 25% 29.89 in 70.0 mi WSW 5.8 mph - N/A   Mostly Cloudy
10:55 AM 50.0 °F - 14.0 °F 24% 29.88 in 70.0 mi WNW 11.5 mph - N/A   Mostly Cloudy
11:55 AM 50.0 °F - 14.0 °F 24% 29.87 in 70.0 mi WNW 8.1 mph - N/A   Mostly Cloudy
12:55 PM 50.0 °F - 15.8 °F 26% 29.90 in 70.0 mi NW 10.4 mph - N/A   Mostly Cloudy
1:55 PM 50.0 °F - 15.8 °F 26% 29.90 in 70.0 mi WNW 11.5 mph - N/A   Mostly Cloudy
2:55 PM 48.2 °F - 17.6 °F 30% 29.93 in 70.0 mi NW 5.8 mph - N/A   Mostly Cloudy
3:55 PM 44.6 °F 40.7 °F 17.6 °F 34% 29.99 in 70.0 mi ENE 6.9 mph - N/A   Mostly Cloudy
4:55 PM 37.4 °F 32.8 °F 17.6 °F 45% 30.08 in 25.0 mi East 5.8 mph - N/A   Scattered Clouds
5:55 PM 41.0 °F 39.0 °F 15.8 °F 36% 30.06 in 25.0 mi North 3.5 mph - N/A   Scattered Clouds
6:55 PM 37.4 °F 32.1 °F 19.4 °F 48% 30.11 in 25.0 mi SSE 6.9 mph - N/A   Scattered Clouds
7:55 PM 32.0 °F 24.8 °F 17.6 °F 55% 30.13 in 25.0 mi SE 8.1 mph - N/A   Scattered Clouds
8:55 PM 35.6 °F 29.2 °F 15.8 °F 44% 30.16 in 25.0 mi South 8.1 mph - N/A   Partly Cloudy
9:55 PM 32.0 °F 23.6 °F 14.0 °F 48% 30.15 in 25.0 mi South 10.4 mph - N/A   Partly Cloudy
10:55 PM 32.0 °F 22.5 °F 15.8 °F 51% 30.17 in 25.0 mi South 12.7 mph - N/A   Partly Cloudy
11:55 PM 32.0 °F 24.2 °F 15.8 °F 51% 30.18 in 25.0 mi South 9.2 mph - N/A   Partly Cloudy